Current Version              Previous Version:    01  02  03  04  05  06  07  08  09  10  11  12  13  14  15  16  17  18  19  20  21  22  23  24  25  26  27  28  29  30  
   31  32  33  34  35  36  37  38  39  40  41  42  43  44  45  46  47  48  49  50  51  52  53  54  55  56  57  58  59  60  

[Printable]
646
ASUS44 KEWX 231702
RWRTX
SOUTH TEXAS REGIONAL WEATHER ROUNDUP
NATIONAL WEATHER SERVICE AUSTIN/SAN ANTONIO TX
1200 PM CDT TUE SEP 23 2014

NOTE: "FAIR" INDICATED FEW OR NO CLOUDS BELOW 12,000 FEET WITH NO
SIGNIFICANT WEATHER AND/OR OBSTRUCTIONS TO VISIBILITY.

* - THESE STATIONS ARE NOT NWS OR FAA STATIONS...AND ARE NOT SUBJECT
    TO NWS AND FAA QUALITY CONTROL.

TXZ171-172-183>190-231800-
TEXAS HILL COUNTRY AND EDWARDS PLATEAU

CITY           SKY/WX    TMP DP  RH WIND       PRES   REMARKS
JUNCTION       MOSUNNY   80  65  59 VRB3      30.18F
*LLANO         SUNNY     79  57  47 SE8       30.22S
BURNET         SUNNY     76  54  46 VRB5      30.21F
*HORSESHOE BAY SUNNY     78  56  46 E3        30.18F
*KERRVILLE     PTSUNNY   79  66  64 SE6       30.19F
*FREDERICKSBRG SUNNY     75  62  63 NE3       30.20S
*ROCKSPRINGS   SUNNY     81  66  61 CALM      30.22S
*BOERNE STAGE  SUNNY     81  59  47 E6        30.19S
*CASTROVILLE   SUNNY     82  59  44 SE7       30.16F
HONDO          PTSUNNY   82  63  52 E6        30.17S
*UVALDE        MOSUNNY   82  69  65 E7        30.15S
DEL RIO        SUNNY     85  62  46 S8        30.12F
LAUGHLIN AFB   NOT AVBL
CARRIZO SPRGS  MOSUNNY   82  68  61 SE3       30.12S
$$

TXZ173-191>194-202-209-217>225-228-231800-
CENTRAL AND SOUTH CENTRAL TEXAS

CITY           SKY/WX    TMP DP  RH WIND       PRES   REMARKS
GEORGETOWN     SUNNY    N/A N/A N/A E7        30.17F
AUSTIN/BERGSTM PTSUNNY   79  58  48 NE6       30.16F
AUSTIN/MABRY   SUNNY     78  58  49 CALM      30.18S
*AUSTIN/EXEC   SUNNY     75  55  50 E3        30.18F
*LAGO VISTA    SUNNY     78  53  41 NE3       30.20S
SAN MARCOS     SUNNY     81  55  41 E7        30.16F
NEW BRAUNFELS  SUNNY     82  55  39 VRB3      30.15S
RANDOLPH AFB   SUNNY     82  57  42 E7        30.15F
PT SAN ANTONIO MOSUNNY   83  61  47 E9        30.13F
SAN ANTONIO    MOSUNNY   83  60  45 E7        30.16S
STINSON FIELD  SUNNY     84  60  44 E9        30.13S
*PLEASANTON    SUNNY     84  62  47 NE7       30.14S
*LA GRANGE     SUNNY     80  58  47 E5        30.13S
*GIDDINGS      SUNNY     77  56  49 E5        30.20S
*GONZALES      SUNNY     80  58  45 E5        30.14S
$$

TXZ163>164-176>182-195>201-210>213-226-227-235-231800-
SOUTHEAST TEXAS

CITY           SKY/WX    TMP DP  RH WIND       PRES   REMARKS
COLLEGE STN    SUNNY     78  56  46 VRB5      30.16F
*BRYAN         SUNNY    N/A N/A N/A E7        30.17S
*CALDWELL      SUNNY     75  55  50 NE7       30.20S
*CROCKETT      SUNNY     79  57  47 SE6       30.21S
*BRENHAM       SUNNY     80  57  44 E6        30.16F
HUNTSVILLE     PTSUNNY   76  54  46 E6        30.17F
CONROE         MOSUNNY   77  55  46 N8        30.16F
HOUSTON BUSH   PTSUNNY   78  57  48 NE9       30.14F
HOUSTON HOBBY  MOSUNNY   80  56  43 E10       30.13R
*HOUSTON SW AP SUNNY     77  58  50 E8        30.13S
PEARLAND       SUNNY     81  58  45 NE10G23   30.14S
HOUSTON HOOKS  SUNNY     80  57  45 NE8       30.15S
ELLINGTON FLD  PTSUNNY   81  59  47 NE8       30.14S
SUGAR LAND     SUNNY     81  57  43 NE10      30.13S
*HOUSTON EXEC  SUNNY     79  79 100 NE12      30.15S
*CLEVELAND MUN SUNNY     78  62  57 CALM      30.16S
*WHARTON       SUNNY     80  57  45 NE10      30.13S
$$

TXZ214>216-236>238-231800-
THE UPPER TEXAS COAST

CITY           SKY/WX    TMP DP  RH WIND       PRES   REMARKS
*ORANGE        MOSUNNY   79  57  47 NE7       30.14F
PORT ARTHUR    MOSUNNY   82  58  43 NE9       30.12S
GALVESTON      MOSUNNY   80  65  59 NE13      30.12S
ANGLETON       SUNNY     80  64  58 NE8       30.12R
*BAY CITY      SUNNY     80  68  65 E7        30.11S
PALACIOS         N/A     82  67  60 NE9       30.11R
$$

TXZ229>234-239>247-231800-
TEXAS COASTAL BEND AND RIO GRANDE PLAINS

CITY           SKY/WX    TMP DP  RH WIND       PRES   REMARKS
VICTORIA       SUNNY     84  60  44 E12       30.12S
*BEEVILLE      SUNNY     85  65  51 E8        30.11S
ROCKPORT       SUNNY     84  70  62 NE9       30.10R
*PORT ARANSAS  SUNNY     83  73  72 NE14G20   30.09S
*PORT LAVACA   SUNNY     81  67  62 NE9       30.11S
*INGLESIDE     SUNNY     86  70  58 E12       30.09S HX  91
CORPUS CHRISTI MOSUNNY   85  73  67 E13       30.09S HX  91
CORPUS NAS     PTSUNNY   86  74  67 NE15      30.08S HX  94
*ROBSTOWN      SUNNY     86  73  66 E13       30.09F HX  93
ALICE          PTSUNNY   86  72  62 E9        30.09F HX  92
KINGSVILLE NAS PTSUNNY   84  75  74 E12       30.08F HX  92
COTULLA        PTSUNNY   83  68  60 E9        30.12S
*FAITH RANCH   SUNNY     82  66  57 E6        30.13S
LAREDO         MOSUNNY   85  70  60 SE10      30.14S
$$

TXZ248>255-231800-
DEEP SOUTH TEXAS

CITY           SKY/WX    TMP DP  RH WIND       PRES   REMARKS
BROWNSVILLE    PTSUNNY   86  74  67 N6        30.06S HX  94
PORT ISABEL    NOT AVBL
*SOUTH PADRE     N/A     81  73  78 NW8       30.06S
HARLINGEN      PTSUNNY   83  76  79 NE9       30.06F HX  91
*HEBBRONVILLE    N/A     81  71  70 E6        30.13S
MCALLEN        PTSUNNY   86  73  65 N7        30.08F HX  93
*WESLACO       PTSUNNY   83  73  71 N7        30.07F HX  90
FALFURRIAS     MOSUNNY  N/A N/A N/A E6        30.09S
EDINBURG       CLOUDY    84  73  69 N8        30.08F HX  90
*ZAPATA        PTSUNNY   85  67  55 E8        30.10S
$$

TXZ213>215-236>238-242>244-246-247-251-254-255-231800-
CMAN STATIONS

STATION/POSITION TIME  TEMP    WIND        PRES    WAVE
                       AIR SEA DIR/SP/G            HT/PER
                 (UTC) (F)     (DEG/KT/KT) (MB)    (FT/S)
SABINE PASS      1600           70/  9/ 14   N/A
SEA RIM ST PARK  1600   76      60/ 12/ 13 1020.3
NORTH JETTY/GLS  1600   76 80   80/ 13/ 16   N/A
EAGLE POINT      1600   75 80   60/ 11/ 13 1020.1
MORGANS POINT    1600   75      60/  9/ 12 1020.1
MISSION/ARANSAS  1600           50/  9     1020.0
PORT O`CONNOR    1600           40/ 13/ 15   N/A
PORT ARANSAS     1600   80 83   40/ 15/ 17 1019.2
MALAQUITE BEACH  1600           50/ 12/ 15   N/A
BAFFIN BAY       1600           70/ 12/ 15   N/A
PORT ISABEL      1600           CALM  /  9   N/A
$$

GMZ080-GMZ150>470-231800-
OFFSHORE BUOY REPORTS

STATION/POSITION TIME  TEMP    WIND        PRES    WAVE
                       AIR SEA DIR/SP/G            HT/PER
                 (UTC) (F)     (DEG/KT/KT) (MB)    (FT/S)
20 E GALVESTON   1700   76 83   60/ 16/ 17 1018.9    4/ 6
90 E PT ARANSAS  1700   82 84   60/ 12/ 16 1018.4    5/ 7
35 NE PT MANSFLD 1600   83 84   60/ 16/ 17 1016.9    4/ 5
200 E PT ISABEL  1600   84 84   50/ 14/ 16 1016.3    4/ 6
$$